Location: Treviso
(45.6669°N, 12.2430°E)
Time: 10:08:13
(UTC+01:00)

ISS - Pass Details

Date: 27 March 2023
Orbit: 414 x 423 km, 51.6° (Epoch: 20 March)

Event Time Altitude Azimuth Distance (km) Brightness Sun altitude
Rises 20:30:03 0° 295° (WNW) 2,360 2.1 -10.8°
Reaches altitude 10° 20:32:17 10° 305° (NW) 1,495 0.3 -11.1°
Maximum altitude 20:35:22 33° 11° (NNE) 728 -2.5 -11.6°
Enters shadow 20:37:38 15° 71° (ENE) 1,206 -1.9 -12.0°
